Location: ??????
(31.3011°N, 45.2851°E)
Time: 07:13:54
(UTC+00:00)

Daily predictions for brighter satellites

Satellite Brightness Start Highest point End
(mag) Time Altitude Azimuth Time Altitude Azimuth Time Altitude Azimuth
Cosmos 1766 Rocket 4.3 16:09:40 10° SSW 16:14:04 59° W 16:18:30 10° N
ISS -2.6 16:12:09 10° WNW 16:15:20 40° SW 16:18:30 10° SSE
YAOGAN 1 3.9 16:12:36 10° S 16:16:42 42° W 16:20:49 10° NNW
Cosmos 1151 Rocket 3.1 16:12:51 10° N 16:17:04 59° E 16:21:16 10° SSE
Cosmos 1633 2.5 16:14:56 10° S 16:18:23 56° E 16:21:51 10° NNE
USA 267 3.3 16:12:56 10° NE 16:19:27 68° SE 16:25:57 10° SSW
Cosmos 1900 4.3 16:16:57 10° SSW 16:21:48 73° ESE 16:26:46 10° NNE
Cosmos 2366 rocket 4.1 16:15:41 10° S 16:21:48 58° E 16:27:53 10° NNE
COSMOS 2406 3.6 16:19:25 10° S 16:24:44 40° ESE 16:30:03 10° NE
Cosmos 1302 Rocket 4.0 16:19:43 10° NNW 16:24:56 76° ENE 16:30:08 10° SSE
FALCON 9 DEB 3.9 16:23:02 10° SSW 16:26:09 31° SE 16:29:16 10° ENE
Iridium 2 3.6 16:22:48 10° N 16:26:34 81° E 16:30:18 10° S
Cosmos 1346 Rocket 4.2 16:24:48 10° SSW 16:28:34 43° W 16:32:22 10° N
Cosmos 1408 Rocket 4.0 16:28:13 10° SSW 16:32:38 67° W 16:37:05 10° N
SL-8 Rocket 4.1 16:28:02 10° S 16:34:11 85° W 16:40:24 10° N
Cosmos 1743 Rocket 3.6 16:32:05 10° S 16:36:25 62° E 16:40:48 10° NNE
CZ-2C R/B 3.7 16:35:03 10° S 16:39:52 52° W 16:44:32 10° NNW
Cosmos 2082 Rocket 3.4 16:36:33 10° SE 16:40:30 20° E 16:44:27 10° NE
BREEZE-M DEB (TANK) 4.0 16:38:59 10° NNW 16:42:51 19° NNE 16:45:08 10° ENE
Gbstr 26 Del rocket 2.6 16:39:42 10° NW 16:43:28 75° NE 16:46:05 19° SE
MOS 1 Rocket 4.3 16:39:03 10° N 16:44:23 58° WNW 16:49:32 10° SSW
CZ-2C R/B 4.1 16:40:15 10° NNE 16:44:34 41° E 16:48:48 10° S
Sich 1 4.2 16:43:53 16° SE 16:46:05 23° E 16:49:36 10° NE
Cosmos 1862 3.8 16:44:00 10° SSE 16:47:44 38° E 16:51:31 10° NNE
SJ-6B 2.9 16:46:37 10° SSE 16:50:37 66° ENE 16:54:38 10° N
Cosmos 292 Rocket 4.3 16:46:07 10° NNW 16:50:47 59° WSW 16:55:26 10° S
Ariane Rocket 3.0 16:48:36 10° SSE 16:53:40 90° SE 16:58:45 10° NNW
Cosmos 1500 Rocket 3.6 16:51:34 10° S 16:55:52 78° W 17:00:11 10° N
ARGOS 3.6 16:51:12 10° S 16:56:31 62° WSW 17:01:51 10° NNW
Cosmos 407 Rocket 3.8 16:54:35 10° S 16:59:35 43° ESE 17:04:36 10° NNE
Resurs 1-3 4.1 16:58:43 23° SE 17:00:54 40° ENE 17:05:00 10° N
Cosmos 1992 Rocket 4.0 16:58:42 10° N 17:03:54 65° ENE 17:07:17 22° SSE
CZ-2C R/B 3.0 17:00:49 10° N 17:05:56 66° WNW 17:11:07 10° SSW
H-2A R/B 3.8 17:07:31 10° SSW 17:12:06 30° W 17:16:35 10° NW
USA 186 3.5 17:10:37 10° SSW 17:12:27 21° W 17:14:17 10° NW
MOS 1 4.4 17:08:19 10° S 17:13:56 73° WSW 17:19:34 10° NNW
FREGAT/IRIS 4.2 17:15:22 15° SSW 17:16:59 27° W 17:19:19 10° NW
Cosmos 1805 Rocket 3.5 17:14:37 11° S 17:18:55 87° ESE 17:23:22 10° N
Cosmos 1980 Rocket 4.2 17:20:30 10° NNE 17:22:44 12° NE 17:23:33 12° ENE
Cosmos 1140 Rocket 3.5 17:21:13 14° S 17:25:36 59° ESE 17:30:47 10° NNE
CZ-3A R/B 3.9 16:51:28 10° W 17:25:43 63° SSW 17:30:57 30° SE
Cosmos 1782 4.0 17:22:08 10° NNW 17:25:56 42° W 17:29:13 13° SSW
CENTAUR R/B 4.5 17:30:36 10° ENE 17:30:36 10° ENE 17:30:42 10° ENE
MetOp-A 4.5 17:24:55 16° S 17:29:14 64° WSW 17:34:33 10° NNW
Cosmos 1023 Rocket 4.4 17:25:00 10° S 17:30:10 69° ESE 17:35:25 10° NNE
Cosmos 1833 Rocket 2.8 17:25:36 10° SSW 17:31:11 74° WNW 17:36:49 10° NNE
ATLAS 5 CENTAUR R/B 2.8 17:25:54 10° NNW 17:31:50 52° ENE 17:34:11 36° ESE
SL-4 R/B 3.9 17:29:00 10° WSW 17:32:37 29° NW 17:36:01 10° NNE
Skynet4D Del rocket 3.8 17:29:06 10° WSW 17:34:23 50° S 17:35:31 44° SE
KM-V1 4.4 17:31:57 10° W 17:34:56 47° WSW 17:34:56 47° WSW
SPOT 3 Rocket 3.5 17:33:34 31° S 17:36:09 83° W 17:41:22 10° NNW
Cosmos 1697 Rocket 3.5 17:33:59 10° N 17:39:01 33° ENE 17:39:35 33° ENE
Cosmos 1867 3.4 17:34:21 10° SSW 17:39:43 71° ESE 17:45:08 10° NNE
Cosmos 1633 Rocket 3.3 17:41:01 52° ENE 17:41:01 52° ENE 17:44:55 10° NNE
Cosmos 1727 Rocket 4.4 17:36:20 10° NNW 17:42:35 62° W 17:47:38 16° S
Cosmos 2228 Rocket 4.0 17:40:14 10° NNW 17:44:26 45° W 17:46:36 25° SSW
Cosmos 1934 Rocket 3.9 17:47:28 39° SSE 17:49:58 72° E 17:56:19 10° N
Resurs 01 Rocket 1.6 17:49:57 67° SSW 17:50:28 79° WSW 17:54:54 10° NNW
Landsat 7 4.5 17:51:13 40° NE 17:51:13 40° NE 17:55:08 10° N
Cosmos 1656 3.5 17:45:26 10° NNW 17:50:57 85° ENE 17:52:03 59° SSE
Cosmos 389 Rocket 3.2 17:47:40 10° NNW 17:50:29 51° NW 17:50:29 51° NW
Cosmos 1812 2.9 17:47:57 10° N 17:51:28 68° NW 17:51:28 68° NW
NOSS 3-2 (A) 3.1 17:50:02 41° S 17:51:53 67° ESE 17:57:49 10° NE
Cosmos 676 Rocket 3.9 17:53:41 67° ESE 17:53:54 68° ESE 17:59:12 10° NNE
Aureole 1 Rocket 4.0 17:51:03 28° S 17:54:32 80° ESE 18:02:13 10° NNE
Cosmos 1707 Rocket 3.8 17:54:58 10° N 17:58:34 60° NNE 17:58:34 60° NNE
Cosmos 220 Rocket 4.2 17:55:53 10° NNW 17:59:24 61° N 17:59:24 61° N
Intercosmos 25 4.3 17:59:09 10° NNW 18:01:52 40° NW 18:01:52 40° NW
ERS-1 Rocket 4.2 18:16:08 31° NE 18:16:08 31° NE 18:19:19 10° N
Meteor 2-20 Rocket 4.4 18:10:27 10° N 18:16:19 64° ENE 18:16:19 64° ENE
GP-B 4.0 18:12:46 10° N 18:15:46 43° N 18:15:46 43° N
Cosmos 2082 Rocket 3.2 18:18:46 10° SW 18:24:10 44° WNW 18:29:35 10° N
Cosmos 2369 3.8 18:20:58 10° NNW 18:26:08 72° N 18:26:08 72° N
USA 245 4.5 18:26:57 72° SW 18:27:28 76° W 18:33:55 10° NNW
Spot 2 Rocket 3.9 18:31:13 60° NW 18:31:13 60° NW 18:35:32 10° NNW
USA 234 4.0 18:31:25 38° NE 18:32:13 39° NE 18:38:10 10° NNW
Cosmos 1818 3.9 18:27:13 10° NNW 18:31:46 62° NW 18:31:46 62° NW
Cosmos 2123 Rocket 4.0 18:27:00 10° N 18:33:13 75° W 18:33:24 74° WSW
Cosmos 2278 4.3 18:30:23 10° NNW 18:34:49 50° NNE 18:34:49 50° NNE
Cosmos 1605 Rocket 4.0 18:36:30 74° W 18:36:33 74° W 18:42:39 10° N
Terra 3.7 18:42:15 23° NNE 18:42:15 23° NNE 18:44:13 10° N
Cosmos 2322 Rocket 4.5 18:41:10 10° NNE 18:42:37 13° NE 18:42:37 13° NE
USA 238 DEB 4.4 18:41:21 10° SW 18:47:40 49° NW 18:54:13 10° NNE
USA 238 4.3 18:41:28 10° SW 18:47:47 50° NW 18:54:19 10° NNE
Cosmos 1980 Rocket 3.3 19:01:39 10° NNW 19:05:19 41° NNW 19:05:19 41° NNW
ATLAS 5 CENTAUR R/B 4.2 19:11:18 10° WNW 19:15:44 25° WSW 19:15:44 25° WSW
CENTAUR R/B 3.4 19:17:41 43° NNW 19:17:41 43° NNW 19:22:49 10° NNE
SL-16 R/B 4.3 20:00:27 10° NNW 20:02:26 23° NNW 20:02:26 23° NNW
Cosmos 2322 Rocket 4.5 20:22:51 10° NNW 20:24:25 19° NNW 20:24:25 19° NNW
ATLAS 3B R/B 4.2 20:34:00 29° N 20:34:00 29° N 20:37:38 10° NNE
SL-16 R/B 4.1 22:01:09 29° NE 22:01:09 29° NE 22:05:16 10° N
CZ-2D R/B 4.2 22:11:27 10° NNE 22:13:36 24° NNE 22:13:36 24° NNE
SL-16 R/B 4.4 22:13:43 10° NNE 22:17:33 18° ENE 22:17:55 18° ENE
Cosmos 2297 Rocket 4.1 22:34:19 23° N 22:34:19 23° N 22:36:37 10° N
USA 215 4.0 22:30:17 10° NE 22:34:48 48° NE 22:34:48 48° NE
SJ 16-02 4.2 22:41:00 14° NNE 22:41:00 14° NNE 22:41:41 10° NNE
Cosmos 2237 Rocket 4.4 22:46:16 10° NNW 22:47:32 17° NNW 22:47:32 17° NNW
NOSS 3-1 (C) 4.3 23:02:20 40° NNE 23:02:20 40° NNE 23:06:03 10° NNE
Resurs 1-4 Rocket 3.9 23:06:06 10° N 23:08:21 24° NNW 23:08:21 24° NNW
Cosmos 2227 Rocket 4.3 23:22:42 17° NW 23:22:42 17° NW 23:24:56 10° NNW
ARIANE 5 R/B 3.3 23:22:36 10° NNE 23:27:00 48° ENE 23:27:00 48° ENE
USA 229 DEB 3.8 23:34:40 57° NW 23:34:40 57° NW 23:40:53 10° NNE
USA 229 3.8 23:34:45 57° NW 23:34:45 57° NW 23:40:57 10° NNE
Cosmos 2227 4.4 23:35:52 70° ENE 23:35:52 70° ENE 23:41:06 10° NNE
Cosmos 1607 4.1 23:29:36 10° NNW 23:36:05 75° ENE 23:37:47 51° SE
Cosmos 1726 4.3 23:45:04 24° NNE 23:45:04 24° NNE 23:46:39 10° NNE
IDEFIX/ARIANE 42P 3.3 23:38:09 10° NNE 23:43:08 46° E 23:43:34 45° ESE
SL-16 R/B 4.0 23:46:15 23° NW 23:46:15 23° NW 23:48:55 10° NW
NOSS 3-1 (A) 3.4 23:46:16 58° NNW 23:46:16 58° NNW 23:51:28 10° NNE
ADEOS II 3.1 23:49:52 10° N 23:53:32 35° NW 23:53:32 35° NW
CZ-2D R/B 4.3 23:53:16 10° NNW 23:54:54 14° NW 23:54:54 14° NW
